"Pseudo-MPEC" for ZX93306

Created 2018 Dec 8 16:18:21 UT using Find_Orb

Click here for an explanation of pseudo-MPECs

 
 Astrometry: 
     ZX93306  C2018 12 04.17805 02 41 35.18 +14 30 22.2          20.4 GVNEOCPG96
     ZX93306  C2018 12 04.18370 02 41 41.87 +14 30 15.3          20.6 GVNEOCPG96
     ZX93306  C2018 12 04.18935 02 41 48.53 +14 30 08.1          20.9 GVNEOCPG96
     ZX93306  C2018 12 04.19500 02 41 55.22 +14 30 00.8          21.1 GVNEOCPG96
     ZX93306  C2018 12 04.31782 02 44 17.70 +14 27 17.4          20.3 GVNEOCPI52
     ZX93306  C2018 12 04.31962 02 44 19.74 +14 27 14.7          20.8 GVNEOCPI52
     ZX93306  C2018 12 04.32143 02 44 21.83 +14 27 12.4          20.5 GVNEOCPI52
     ZX93306  C2018 12 04.73662 02 52 13.69 +14 17 44.2          21.0 VSNEOCP033
     ZX93306  C2018 12 04.73777 02 52 14.87 +14 17 42.6          20.8 VSNEOCP033
     ZX93306  C2018 12 04.73890 02 52 16.04 +14 17 41.5          21.1 VSNEOCP033
     ZX93306  C2018 12 04.74005 02 52 17.20 +14 17 40.1          21.2 VSNEOCP033
     ZX93306  C2018 12 04.74118 02 52 18.37 +14 17 39.0          21.5 VSNEOCP033
     ZX93306  C2018 12 04.74231 02 52 19.54 +14 17 37.3          21.9 VSNEOCP033
     ZX93306 KC2018 12 04AOG/Fm=W1EcJpdH';AstrometryPAk*$wQZ*6uukv*kR/4cTwg$j104
     ZX93306 KC2018 12 04_y/s)FsEAnjS\@+k.Hy`i#Y=YSx[W]4g03)=.Q.L*DGiiUkh;[Eq104
     ZX93306 KC2018 12 04%wF-Y65hBCnLA;p0KaR@vx8k:B9!.rR.?`RP;tr9iyZ^IEcdw*aO104
     ZX93306  C2018 12 04.82617 02 53 43.64 +14 15 59.5          21.5 VSNEOCP033
     ZX93306  C2018 12 04.82730 02 53 44.76 +14 15 58.0          21.4 VSNEOCP033
     ZX93306  C2018 12 04.82845 02 53 45.89 +14 15 56.8          21.4 VSNEOCP033
     ZX93306  C2018 12 04.82958 02 53 47.03 +14 15 55.6          21.1 VSNEOCP033
     ZX93306  C2018 12 04.83072 02 53 48.14 +14 15 54.2          21.1 VSNEOCP033
     ZX93306  C2018 12 04.83186 02 53 49.27 +14 15 52.7          21.3 VSNEOCP033
     ZX93306  C2018 12 04.83300 02 53 50.37 +14 15 51.4          21.3 VSNEOCP033
     ZX93306  C2018 12 04.83413 02 53 51.48 +14 15 50.0          21.1 VSNEOCP033
     ZX93306 KC2018 12 04L=wZ67:ih0c:IRm]kp(T[Z^B/ZNyEsDqredacted;jv,'3FpU0YJJ04
     ZX93306 KC2018 12 04S1I3pEC*svOlu!\qa=*a3:rGd+3[jI0ULC%q@0jq96l:McUjG=X;J04
     ZX93306 KC2018 12 04w\d-kk*qb%[-vtChiJ+Do,;MHPR'KDBHZa/KR9vnr1!n`y6OIuM(J04
     ZX93306  C2018 12 05DA.FUIU[UI1IACK6)J2s_l^(]Bclick5-FVomfrHGMK2wm/H]8LcH01
     ZX93306  C2018 12 05lOyHdaotVb:)d;VjNS]]UtP'7T'Wrr4?GhgeO\:_xTh=pE-DRD[.H01
     ZX93306  C2018 12 05@85/W6wEVL[peZJ.Q@S8_\mTe]=+y^Dhm!%j5p\+5pUCGPP_H6u)H01
     ZX93306  C2018 12 05*qbwMAAMVkca'3qJZ!!sI7HtQH;Ru5\Gw4Ns/UO!here?7(RbRgcH01
     ZX93306  C2018 12 05.11520 02 58 29.24 +14 10 37.7          21.4 GVNEOCPI52
     ZX93306  C2018 12 05.12109 02 58 34.54 +14 10 31.0          21.4 GVNEOCPI52
     ZX93306  C2018 12 05.12699 02 58 39.82 +14 10 24.0          21.1 GVNEOCPI52
     ZX93306 KC2018 12 06sHnhD#7kT%?M4tWimHK0XAMe[9dx`7!.%!R\8Cjq,kOO^w!^-Y%ZL01
     ZX93306 KC2018 12 06ynvXJN:L+4h#t3RIr)J06)jJ(_wj,ejU;H%i=AoU8YOKeSwn#.*aL01
     ZX93306 KC2018 12 06wJWRe1/wS$yb2lBwE?k'OcY],$B@VGQfor.2W@u.MTa5Js'lp2;)L01
     ZX93306 KC2018 12 07QJMaqXp]6j3x=g`,kY4^*npEwcjD6KQBOX)F6S^wK%:l?!]xiA(]H21
     ZX93306 KC2018 12 07yCdAsv%sf21m0\L$NkYfCHaL,STgbaId]v:p([MlyKFD*fBSNn_[H21
     ZX93306 KC2018 12 07+xu\8kRN3lexplanation@+Ek,DPrf)4B[6HXr(qWZF9rlE6@3\:H21
     ZX93306  C2018 12 08.06328 03 30 52.33 +13 22 01.0          22.4 VSNEOCP033
     ZX93306  C2018 12 08.06568 03 30 53.41 +13 21 58.9          22.4 VSNEOCP033
     ZX93306  C2018 12 08.06810 03 30 54.50 +13 21 56.6          22.3 VSNEOCP033
     ZX93306  C2018 12 08.07051 03 30 55.60 +13 21 54.5          22.1 VSNEOCP033
     ZX93306  C2018 12 08.07293 03 30 56.67 +13 21 52.2          22.2 VSNEOCP033
     ZX93306  C2018 12 08.07534 03 30 57.79 +13 21 50.2          22.1 VSNEOCP033
     ZX93306  C2018 12 08.07774 03 30 58.90 +13 21 48.5          22.0 VSNEOCP033

Station data:
(033) Karl Schwarzschild Observatory, Tautenburg  (N50.980140 E11.711240)
   Germany. 1.3-m Schmidt.
(104) San Marcello Pistoiese  (N44.063037 E10.804200)  Italy. 0.40-m f/5
   reflector.
(G96) Mt. Lemmon Survey  (N32.442754 W110.788720)  US/Arizona.  Observers B.
   M. Africano, E. J. Christensen, G. A. Farneth, D. C. Fuls, A. R. Gibbs, A.
   D. Grauer, H. Groeller, J. A. Johnson, R. A. Kowalski, S. M. Larson, G. J.
   Leonard, R. L. Seaman, F. C. Shelly. 1.5-m reflector + 10K CCD.
(H01) Magdalena Ridge Observatory, Socorro  (N33.984833 W107.189333)  US/New
   Mexico.  Observers W. H. Ryan, E. V. Ryan. Measurer W. H. Ryan. 2.4-m
   f/8.9 reflector + CCD.
(H21) Astronomical Research Observatory, Westfield  (N39.483057 W87.968270)
   US/Illinois. 0.76-m f/3.0 astrograph + CCD.
(I52) Steward Observatory, Mt. Lemmon Station  (N32.442547 W110.788920)
   US/Arizona.  Observers B. M. Africano, E. J. Christensen, G. A. Farneth,
   D. C. Fuls, A. R. Gibbs, A. D. Grauer, H. Groeller, J. A. Johnson, R. A.
   Kowalski, S. M. Larson, G. J. Leonard, R. L. Seaman, F. C. Shelly. 1.0-m
   reflector + CCD.
(J04) ESA Optical Ground Station, Tenerife  (N28.300924 W16.511830)  Canary
   Islands (Spain).  Observer D. Abreu. Measurers M. Micheli, D. Koschny, E.
   Schwab, M. Busch, A. Knöfel. 1.0-m f/4.4 reflector + CCD.
(L01) Višnjan Observatory, Tičan  (N45.290900 E13.749300)  Croatia.
   Observers K. Korlević, E. Pettarin. Measurer E. Pettarin. 1.0-m f/2.9
   reflector + CCD.

Orbital elements:  ZX93306
   Perihelion 2018 Oct 14.330471 +/- 0.049 TT =  7:55:52 (JD 2458405.830471)
Epoch 2018 Dec  8.0 TT = JDT 2458460.5   Earth MOID: 0.0100   Ma: 0.0495
M  21.32558148 +/- 0.14             (J2000 ecliptic)          AutoNEOCP
n   0.39008167 +/- 0.00226          Peri.   98.66609 +/- 0.0047
a   1.85509299 +/- 0.00716          Node   249.49878 +/- 0.0036
e   0.6248056 +/- 0.00169           Incl.    7.01394 +/- 0.016
P   2.53/922.87d           H 25.9   G  0.15   U  8.6  
q 0.69602046 +/- 0.000454    Q 3.01416551 +/- 0.0149
From 47 observations 2018 Dec. 4-8; mean residual 0".26
Residuals in arcseconds: 
181204 G96  .30+  .14-    181204 033  .33-  .02-    181205 I52  .47-  .11-    
181204 G96  .14+  .02+    181204 033  .25-  .17-    181205 I52  .93-  .57-    
181204 G96  .25-  .09-    181204 033  .31-  .00     181206 L01  .79+  .16+    
181204 G96  .00   .27-    181204 033  .08+  .15+    181206 L01  .41+  .28+    
181204 I52  .20+  .02+    181204 033  .11-  .12+    181206 L01  .37+  .23+    
181204 I52  .10-  .17-    181204 033  .00   .02-    181207 H21  .15-  .10-    
181204 I52  .17+  .06+    181204 033  .32-  .05+    181207 H21  .18-  .22+    
181204 033  .22-  .17+    181204 033  .35-  .00     181207 H21  .17-  .18+    
181204 033  .18-  .11-    181204 J04  .19-  .07+    181208 033  .10-  .28+    
181204 033  .01+  .08+    181204 J04  .13-  .06+    181208 033  .18-  .17+    
181204 033  .23-  .00     181204 J04  .11+  .12-    181208 033  .24-  .13-    
181204 033  .02-  .19+    181205 H01  .05+  .03+    181208 033  .10-  .24-    
181204 033  .21+  .21-    181205 H01  .31+  .07+    181208 033  .46-  .53-    
181204 104  .29+  .01+    181205 H01  .21+  .03-    181208 033  .03-  .54-    
181204 104  .50+  .10-    181205 H01  .07-  .07-    181208 033  .32+  .25-    
181204 104  .07+  .76+    181205 I52  .22-  .09+    

Ephemerides (geocentric):
Date (UTC) HH   RA              Dec         delta   r     elong  mag " sig PA
---- -- -- --  -------------   -----------  ------ ------ -----  --- ---- ---
2018 12 08 16  03 35 19.447   +13 15 42.83  .10657 1.0844 157.7 22.2 .255  59
2018 12 08 17  03 35 36.545   +13 15 14.33  .10702 1.0848 157.7 22.2 .262  60
2018 12 08 18  03 35 53.508   +13 14 46.04  .10746 1.0853 157.8 22.2 .269  61
2018 12 08 19  03 36 10.337   +13 14 17.96  .10790 1.0857 157.8 22.2 .276  61
2018 12 08 20  03 36 27.033   +13 13 50.09  .10834 1.0861 157.8 22.3 .282  62
2018 12 08 21  03 36 43.598   +13 13 22.43  .10878 1.0865 157.8 22.3 .289  63
2018 12 08 22  03 37 00.034   +13 12 54.97  .10923 1.0869 157.8 22.3 .296  63
2018 12 08 23  03 37 16.342   +13 12 27.72  .10967 1.0874 157.8 22.3 .303  64
2018 12 09 00  03 37 32.523   +13 12 00.67  .11011 1.0878 157.9 22.3 .311  65
2018 12 09 01  03 37 48.580   +13 11 33.81  .11056 1.0882 157.9 22.3 .318  65
2018 12 09 02  03 38 04.514   +13 11 07.16  .11100 1.0886 157.9 22.3 .325  66
2018 12 09 03  03 38 20.325   +13 10 40.71  .11145 1.0890 157.9 22.3 .332  66
2018 12 09 04  03 38 36.016   +13 10 14.46  .11189 1.0895 157.9 22.3 .340  67
2018 12 09 05  03 38 51.587   +13 09 48.40  .11234 1.0899 157.9 22.3 .347  67
2018 12 09 06  03 39 07.041   +13 09 22.53  .11278 1.0903 157.9 22.3 .354  68
2018 12 09 07  03 39 22.379   +13 08 56.86  .11323 1.0907 157.9 22.4 .362  68
2018 12 09 08  03 39 37.601   +13 08 31.38  .11367 1.0911 157.9 22.4 .369  68
2018 12 09 09  03 39 52.709   +13 08 06.09  .11412 1.0916 158.0 22.4 .377  69
2018 12 09 10  03 40 07.706   +13 07 40.99  .11456 1.0920 158.0 22.4 .384  69
2018 12 09 11  03 40 22.590   +13 07 16.08  .11501 1.0924 158.0 22.4 .392  70
2018 12 09 12  03 40 37.365   +13 06 51.35  .11545 1.0928 158.0 22.4 .400  70
2018 12 09 13  03 40 52.031   +13 06 26.81  .11590 1.0932 158.0 22.4 .407  70
2018 12 09 14  03 41 06.590   +13 06 02.45  .11635 1.0937 158.0 22.4 .415  71
2018 12 09 15  03 41 21.042   +13 05 38.28  .11679 1.0941 158.0 22.4 .423  71
2018 12 09 16  03 41 35.390   +13 05 14.29  .11724 1.0945 158.0 22.4 .430  71
2018 12 09 17  03 41 49.633   +13 04 50.48  .11769 1.0949 158.0 22.4 .438  72
2018 12 09 18  03 42 03.773   +13 04 26.84  .11814 1.0953 158.0 22.5 .446  72
2018 12 09 19  03 42 17.812   +13 04 03.39  .11858 1.0958 158.0 22.5 .454  72
2018 12 09 20  03 42 31.751   +13 03 40.11  .11903 1.0962 158.0 22.5 .462  72
2018 12 09 21  03 42 45.590   +13 03 17.01  .11948 1.0966 158.0 22.5 .470  73
2018 12 09 22  03 42 59.330   +13 02 54.08  .11993 1.0970 158.0 22.5 .478  73
2018 12 09 23  03 43 12.974   +13 02 31.33  .12038 1.0974 158.1 22.5 .485  73
2018 12 10 00  03 43 26.521   +13 02 08.75  .12083 1.0979 158.1 22.5 .493  73
2018 12 10 01  03 43 39.973   +13 01 46.33  .12127 1.0983 158.1 22.5 .501  73
2018 12 10 02  03 43 53.331   +13 01 24.09  .12172 1.0987 158.1 22.5 .509  74
2018 12 10 03  03 44 06.596   +13 01 02.02  .12217 1.0991 158.1 22.5 .517  74
2018 12 10 04  03 44 19.769   +13 00 40.11  .12262 1.0995 158.1 22.5 .525  74
2018 12 10 05  03 44 32.850   +13 00 18.37  .12307 1.1000 158.1 22.5 .533  74
2018 12 10 06  03 44 45.842   +12 59 56.79  .12352 1.1004 158.1 22.6 .542  74
2018 12 10 07  03 44 58.744   +12 59 35.38  .12397 1.1008 158.1 22.6 .550  75
2018 12 10 08  03 45 11.558   +12 59 14.13  .12442 1.1012 158.1 22.6 .558  75
2018 12 10 09  03 45 24.285   +12 58 53.05  .12487 1.1017 158.1 22.6 .566  75
2018 12 10 10  03 45 36.925   +12 58 32.12  .12532 1.1021 158.1 22.6 .574  75
2018 12 10 11  03 45 49.480   +12 58 11.35  .12577 1.1025 158.1 22.6 .582  75
2018 12 10 12  03 46 01.951   +12 57 50.74  .12623 1.1029 158.1 22.6 .590  75
2018 12 10 13  03 46 14.338   +12 57 30.29  .12668 1.1033 158.1 22.6 .598  75
2018 12 10 14  03 46 26.642   +12 57 10.00  .12713 1.1038 158.1 22.6 .607  76
2018 12 10 15  03 46 38.864   +12 56 49.86  .12758 1.1042 158.1 22.6 .615  76